AAA740 YBAS-YBRM

Flight info

Callsign AAA740
Flight time 2h 21m
Altitude 30000
Route LUGSA T11 CESCI DCT MELAN
Aircraft F28/M-SDFIRWY/H

Departure

Time 2026-05-06 18:27
Airport Alice Springs Airport (YBAS)

Arrival

Time 2026-05-06 20:49
Airport Broome International Airport (YBRM)
Time Latitude Longitude Altitude Speed Heading
2026-05-06 18:10 -23.80306 133.90184 1811 ft 0 kts 62°
2026-05-06 18:20 -23.80306 133.90186 1784 ft 0 kts 93°
2026-05-06 18:20 -23.80324 133.90210 1783 ft 6 kts 162°
2026-05-06 18:21 -23.80335 133.90208 1784 ft 1 kts 220°
2026-05-06 18:21 -23.80335 133.90134 1782 ft 14 kts 293°
2026-05-06 18:21 -23.80288 133.90037 1782 ft 14 kts 300°
2026-05-06 18:21 -23.80226 133.89925 1779 ft 20 kts 298°
2026-05-06 18:22 -23.80159 133.89799 1779 ft 18 kts 300°
2026-05-06 18:22 -23.80101 133.89689 1779 ft 16 kts 300°
2026-05-06 18:22 -23.80046 133.89588 1779 ft 15 kts 300°
2026-05-06 18:22 -23.80001 133.89501 1782 ft 11 kts 301°
2026-05-06 18:23 -23.79982 133.89458 1783 ft 0 kts 284°
2026-05-06 18:23 -23.79982 133.89456 1783 ft 3 kts 280°
2026-05-06 18:23 -23.79982 133.89440 1783 ft 3 kts 261°
2026-05-06 18:24 -23.79985 133.89425 1783 ft 2 kts 264°
2026-05-06 18:24 -23.79993 133.89393 1783 ft 9 kts 248°
2026-05-06 18:24 -23.80022 133.89337 1782 ft 4 kts 234°
2026-05-06 18:24 -23.80031 133.89321 1780 ft 3 kts 241°
2026-05-06 18:25 -23.80043 133.89299 1780 ft 4 kts 238°
2026-05-06 18:25 -23.80046 133.89294 1781 ft 0 kts 233°
2026-05-06 18:25 -23.80058 133.89277 1780 ft 1 kts 212°
2026-05-06 18:25 -23.80078 133.89298 1781 ft 5 kts 119°
2026-05-06 18:26 -23.80079 133.89298 1781 ft 0 kts 120°
2026-05-06 18:26 -23.80111 133.89358 1780 ft 31 kts 121°
2026-05-06 18:27 -23.80351 133.89782 1778 ft 102 kts 122°
2026-05-06 18:27 -23.80798 133.90623 1834 ft 158 kts 121°
2026-05-06 18:27 -23.81442 133.91751 2574 ft 174 kts 124°
2026-05-06 18:27 -23.81900 133.92824 4204 ft 137 kts 107°
2026-05-06 18:28 -23.82234 133.93740 5312 ft 140 kts 117°
2026-05-06 18:28 -23.82834 133.94780 5621 ft 181 kts 138°
2026-05-06 18:28 -23.84011 133.95367 6335 ft 196 kts 174°
2026-05-06 18:28 -23.85348 133.94995 7122 ft 207 kts 212°
2026-05-06 18:29 -23.86248 133.93750 7930 ft 215 kts 245°
2026-05-06 18:29 -23.86748 133.92188 8750 ft 223 kts 250°
2026-05-06 18:29 -23.87247 133.90554 9549 ft 229 kts 250°
2026-05-06 18:29 -23.87805 133.88907 10276 ft 233 kts 247°
2026-05-06 18:30 -23.88436 133.87290 10847 ft 235 kts 245°
2026-05-06 18:30 -23.89157 133.85668 11316 ft 241 kts 242°
2026-05-06 18:30 -23.89968 133.84036 11595 ft 249 kts 240°
2026-05-06 18:30 -23.90851 133.82372 11906 ft 256 kts 239°
2026-05-06 18:31 -23.91798 133.80679 12194 ft 266 kts 238°
2026-05-06 18:31 -23.92807 133.78939 12487 ft 276 kts 237°
2026-05-06 18:31 -23.93886 133.77144 12775 ft 289 kts 237°
2026-05-06 18:31 -23.95026 133.75278 13084 ft 301 kts 237°
2026-05-06 18:32 -23.96204 133.73329 13387 ft 313 kts 241°
2026-05-06 18:32 -23.96853 133.71060 13689 ft 324 kts 265°
2026-05-06 18:32 -23.96570 133.68594 14008 ft 335 kts 289°
2026-05-06 18:32 -23.95371 133.66372 14298 ft 347 kts 311°
2026-05-06 18:33 -23.93452 133.64704 14587 ft 359 kts 326°
2026-05-06 18:33 -23.91289 133.63258 14854 ft 369 kts 327°
2026-05-06 18:33 -23.89059 133.61777 15124 ft 378 kts 327°
2026-05-06 18:33 -23.86833 133.60210 15539 ft 382 kts 324°
2026-05-06 18:34 -23.84665 133.58578 16055 ft 382 kts 323°
2026-05-06 18:34 -23.82518 133.56875 16696 ft 379 kts 322°
2026-05-06 18:34 -23.80411 133.55153 17331 ft 376 kts 321°
2026-05-06 18:34 -23.78333 133.53439 17968 ft 372 kts 321°
2026-05-06 18:35 -23.76280 133.51734 18611 ft 369 kts 320°
2026-05-06 18:35 -23.74242 133.50035 19087 ft 368 kts 320°
2026-05-06 18:35 -23.72144 133.48412 19473 ft 371 kts 324°
2026-05-06 18:35 -23.69973 133.46937 19842 ft 373 kts 326°
2026-05-06 18:36 -23.67717 133.45506 20207 ft 375 kts 327°
2026-05-06 18:36 -23.65431 133.44119 20557 ft 377 kts 327°
2026-05-06 18:36 -23.63131 133.42729 20905 ft 378 kts 327°
2026-05-06 18:36 -23.60818 133.41330 21239 ft 380 kts 327°
2026-05-06 18:37 -23.58493 133.39927 21571 ft 381 kts 327°
2026-05-06 18:37 -23.56990 133.38934 21780 ft 379 kts 320°
2026-05-06 18:37 -23.54749 133.36093 22209 ft 373 kts 299°
2026-05-06 18:37 -23.53491 133.33618 22512 ft 373 kts 295°
2026-05-06 18:38 -23.52349 133.31069 22822 ft 374 kts 293°
2026-05-06 18:38 -23.51251 133.28504 23113 ft 374 kts 293°
2026-05-06 18:38 -23.50148 133.25927 23395 ft 375 kts 293°
2026-05-06 18:38 -23.49033 133.23339 23679 ft 377 kts 294°
2026-05-06 18:39 -23.47912 133.20796 23925 ft 378 kts 294°
2026-05-06 18:39 -23.46762 133.18212 24162 ft 378 kts 294°
2026-05-06 18:39 -23.45607 133.15634 24393 ft 379 kts 294°
2026-05-06 18:40 -23.43285 133.10473 24833 ft 380 kts 294°
2026-05-06 18:40 -23.42130 133.07911 25042 ft 380 kts 294°
2026-05-06 18:40 -23.40963 133.05326 25252 ft 380 kts 294°
2026-05-06 18:40 -23.39795 133.02744 25435 ft 381 kts 294°
2026-05-06 18:41 -23.38617 133.00136 25583 ft 383 kts 294°
2026-05-06 18:41 -23.37440 132.97521 25763 ft 384 kts 294°
2026-05-06 18:41 -23.36264 132.94905 25950 ft 384 kts 294°
2026-05-06 18:41 -23.35101 132.92324 26135 ft 385 kts 294°
2026-05-06 18:42 -23.33915 132.89710 26316 ft 385 kts 294°
2026-05-06 18:42 -23.32722 132.87095 26509 ft 385 kts 294°
2026-05-06 18:42 -23.31532 132.84486 26707 ft 385 kts 294°
2026-05-06 18:42 -23.30345 132.81872 26904 ft 384 kts 294°
2026-05-06 18:43 -23.29162 132.79260 27077 ft 384 kts 294°
2026-05-06 18:43 -23.27979 132.76658 27276 ft 384 kts 294°
2026-05-06 18:43 -23.26809 132.74092 27465 ft 383 kts 294°
2026-05-06 18:43 -23.25625 132.71501 27653 ft 382 kts 294°
2026-05-06 18:44 -23.24440 132.68910 27842 ft 382 kts 294°
2026-05-06 18:44 -23.23258 132.66330 28021 ft 381 kts 294°
2026-05-06 18:44 -23.22079 132.63757 28209 ft 380 kts 294°
2026-05-06 18:44 -23.20900 132.61186 28450 ft 378 kts 294°
2026-05-06 18:45 -23.19732 132.58639 28761 ft 374 kts 294°
2026-05-06 18:45 -23.18577 132.56118 29078 ft 371 kts 294°
2026-05-06 18:45 -23.17427 132.53620 29403 ft 367 kts 294°
2026-05-06 18:45 -23.16674 132.51987 29608 ft 364 kts 294°
2026-05-06 18:46 -23.15168 132.48712 29996 ft 360 kts 293°
2026-05-06 18:46 -23.14063 132.46281 30176 ft 359 kts 293°
2026-05-06 18:46 -23.13327 132.44662 30228 ft 360 kts 294°
2026-05-06 18:47 -23.10712 132.38961 30240 ft 360 kts 294°
2026-05-06 18:47 -23.08860 132.34928 30231 ft 356 kts 294°
2026-05-06 18:48 -23.06314 132.29375 30229 ft 350 kts 293°
2026-05-06 18:48 -23.04502 132.25429 30227 ft 346 kts 294°
2026-05-06 18:49 -23.02376 132.20803 30227 ft 342 kts 293°
2026-05-06 18:49 -23.00258 132.16190 30220 ft 338 kts 293°
2026-05-06 18:50 -22.98169 132.11643 30226 ft 335 kts 293°
2026-05-06 18:50 -22.96109 132.07173 30225 ft 332 kts 293°
2026-05-06 18:51 -22.94048 132.02708 30225 ft 329 kts 293°
2026-05-06 18:51 -22.92002 131.98276 30236 ft 327 kts 293°
2026-05-06 18:52 -22.89964 131.93874 30225 ft 326 kts 293°
2026-05-06 18:52 -22.87947 131.89518 30221 ft 324 kts 293°
2026-05-06 18:53 -22.85935 131.85156 30218 ft 321 kts 293°
2026-05-06 18:53 -22.83947 131.80857 30228 ft 321 kts 293°
2026-05-06 18:54 -22.81906 131.76472 30239 ft 330 kts 293°
2026-05-06 18:54 -22.79810 131.71970 30230 ft 338 kts 293°
2026-05-06 18:55 -22.77666 131.67371 30226 ft 345 kts 293°
2026-05-06 18:55 -22.75478 131.62685 30226 ft 351 kts 294°
2026-05-06 18:56 -22.73257 131.57917 30222 ft 357 kts 294°
2026-05-06 18:56 -22.71031 131.53106 30221 ft 360 kts 293°
2026-05-06 18:57 -22.68754 131.48233 30221 ft 364 kts 294°
2026-05-06 18:57 -22.66448 131.43317 30216 ft 367 kts 293°
2026-05-06 18:58 -22.64139 131.38387 30216 ft 370 kts 293°
2026-05-06 18:58 -22.61803 131.33394 30227 ft 373 kts 294°
2026-05-06 18:59 -22.59458 131.28379 30212 ft 376 kts 294°
2026-05-06 18:59 -22.57089 131.23322 30203 ft 376 kts 293°
2026-05-06 19:00 -22.54714 131.18265 30207 ft 377 kts 293°
2026-05-06 19:00 -22.52349 131.13234 30200 ft 377 kts 293°
2026-05-06 19:01 -22.49966 131.08168 30207 ft 378 kts 293°
2026-05-06 19:01 -22.47576 131.03084 30202 ft 379 kts 293°
2026-05-06 19:02 -22.45180 130.97984 30200 ft 380 kts 293°
2026-05-06 19:02 -22.42800 130.92920 30179 ft 379 kts 293°
2026-05-06 19:03 -22.40398 130.87842 30203 ft 378 kts 293°
2026-05-06 19:03 -22.38003 130.82784 30195 ft 377 kts 293°
2026-05-06 19:04 -22.35610 130.77731 30188 ft 377 kts 293°
2026-05-06 19:04 -22.33238 130.72718 30196 ft 376 kts 293°
2026-05-06 19:05 -22.30850 130.67670 30194 ft 376 kts 293°
2026-05-06 19:05 -22.28471 130.62639 30176 ft 376 kts 293°
2026-05-06 19:06 -22.26116 130.57645 30195 ft 374 kts 293°
2026-05-06 19:06 -22.23761 130.52640 30191 ft 373 kts 293°
2026-05-06 19:07 -22.21398 130.47646 30192 ft 372 kts 293°
2026-05-06 19:07 -22.19040 130.42701 30187 ft 372 kts 294°
2026-05-06 19:08 -22.16665 130.37725 30182 ft 372 kts 294°
2026-05-06 19:08 -22.14292 130.32759 30178 ft 372 kts 294°
2026-05-06 19:09 -22.11909 130.27807 30155 ft 371 kts 294°
2026-05-06 19:09 -22.09533 130.22914 30176 ft 368 kts 294°
2026-05-06 19:10 -22.07150 130.18020 30174 ft 367 kts 294°
2026-05-06 19:10 -22.04782 130.13140 30177 ft 368 kts 294°
2026-05-06 19:11 -22.02411 130.08249 30179 ft 367 kts 294°
2026-05-06 19:11 -22.00055 130.03381 30180 ft 366 kts 294°
2026-05-06 19:12 -21.97712 129.98542 30176 ft 367 kts 294°
2026-05-06 19:12 -21.95330 129.93640 30173 ft 369 kts 294°
2026-05-06 19:13 -21.92943 129.88729 30169 ft 370 kts 294°
2026-05-06 19:13 -21.90576 129.83841 30172 ft 368 kts 294°
2026-05-06 19:14 -21.88217 129.78998 30168 ft 362 kts 294°
2026-05-06 19:14 -21.85906 129.74263 30164 ft 357 kts 294°
2026-05-06 19:15 -21.83611 129.69552 30169 ft 352 kts 294°
2026-05-06 19:15 -21.81341 129.64903 30145 ft 349 kts 294°
2026-05-06 19:16 -21.79095 129.60304 30158 ft 345 kts 294°
2026-05-06 19:16 -21.76890 129.55777 30162 ft 342 kts 294°
2026-05-06 19:17 -21.74684 129.51262 30154 ft 339 kts 294°
2026-05-06 19:17 -21.72487 129.46785 30157 ft 337 kts 294°
2026-05-06 19:18 -21.70302 129.42327 30159 ft 335 kts 294°
2026-05-06 19:18 -21.68137 129.37916 30163 ft 334 kts 294°
2026-05-06 19:19 -21.65972 129.33501 30162 ft 332 kts 293°
2026-05-06 19:19 -21.63834 129.29133 30145 ft 331 kts 294°
2026-05-06 19:20 -21.61681 129.24767 30161 ft 330 kts 294°
2026-05-06 19:20 -21.59536 129.20408 30155 ft 329 kts 294°
2026-05-06 19:21 -21.57404 129.16084 30161 ft 328 kts 294°
2026-05-06 19:21 -21.55263 129.11744 30159 ft 328 kts 294°
2026-05-06 19:22 -21.53134 129.07402 30152 ft 328 kts 294°
2026-05-06 19:22 -21.50997 129.03088 30157 ft 327 kts 294°
2026-05-06 19:23 -21.48862 128.98770 30132 ft 327 kts 294°
2026-05-06 19:23 -21.46734 128.94469 30150 ft 326 kts 294°
2026-05-06 19:24 -21.44606 128.90175 30148 ft 326 kts 294°
2026-05-06 19:24 -21.42503 128.85904 30144 ft 325 kts 293°
2026-05-06 19:25 -21.40370 128.81608 30145 ft 325 kts 294°
2026-05-06 19:25 -21.38244 128.77326 30156 ft 325 kts 294°
2026-05-06 19:26 -21.36113 128.73041 30143 ft 325 kts 294°
2026-05-06 19:26 -21.33983 128.68755 30147 ft 325 kts 294°
2026-05-06 19:27 -21.31852 128.64471 30134 ft 325 kts 293°
2026-05-06 19:27 -21.29741 128.60211 30133 ft 325 kts 294°
2026-05-06 19:28 -21.27607 128.55940 30136 ft 325 kts 294°
2026-05-06 19:28 -21.25472 128.51663 30139 ft 325 kts 294°
2026-05-06 19:29 -21.23336 128.47384 30138 ft 325 kts 294°
2026-05-06 19:29 -21.21198 128.43106 30134 ft 325 kts 294°
2026-05-06 19:30 -21.19062 128.38835 30133 ft 325 kts 294°
2026-05-06 19:30 -21.16935 128.34589 30138 ft 325 kts 294°
2026-05-06 19:31 -21.14800 128.30318 30117 ft 324 kts 294°
2026-05-06 19:31 -21.11595 128.23916 30128 ft 325 kts 294°
2026-05-06 19:32 -21.09471 128.19670 30126 ft 325 kts 294°
2026-05-06 19:32 -21.07329 128.15400 30133 ft 325 kts 294°
2026-05-06 19:33 -21.05543 128.11847 30130 ft 326 kts 294°
2026-05-06 19:33 -21.03043 128.06873 30128 ft 326 kts 294°
2026-05-06 19:34 -21.01254 128.03311 30122 ft 326 kts 294°
2026-05-06 19:34 -20.99106 127.99030 30121 ft 326 kts 294°
2026-05-06 19:35 -20.96960 127.94755 30124 ft 326 kts 294°
2026-05-06 19:35 -20.94820 127.90508 30121 ft 326 kts 294°
2026-05-06 19:36 -20.92666 127.86236 30116 ft 326 kts 294°
2026-05-06 19:36 -20.90516 127.81967 30119 ft 326 kts 294°
2026-05-06 19:37 -20.88361 127.77688 30117 ft 326 kts 294°
2026-05-06 19:37 -20.86209 127.73411 30114 ft 326 kts 294°
2026-05-06 19:38 -20.84061 127.69139 30116 ft 326 kts 294°
2026-05-06 19:38 -20.81908 127.64859 30113 ft 327 kts 294°
2026-05-06 19:39 -20.79770 127.60612 30101 ft 326 kts 293°
2026-05-06 19:39 -20.77598 127.56320 30111 ft 326 kts 294°
2026-05-06 19:40 -20.75448 127.52087 30111 ft 327 kts 294°
2026-05-06 19:40 -20.73276 127.47818 30111 ft 327 kts 294°
2026-05-06 19:41 -20.71108 127.43547 30108 ft 327 kts 294°
2026-05-06 19:41 -20.68932 127.39270 30107 ft 328 kts 294°
2026-05-06 19:42 -20.66749 127.34998 30106 ft 328 kts 294°
2026-05-06 19:42 -20.64568 127.30721 30106 ft 328 kts 294°
2026-05-06 19:43 -20.62387 127.26439 30087 ft 328 kts 294°
2026-05-06 19:43 -20.60205 127.22165 30107 ft 328 kts 294°
2026-05-06 19:44 -20.58036 127.17909 30091 ft 328 kts 294°
2026-05-06 19:44 -20.55845 127.13628 30091 ft 329 kts 294°
2026-05-06 19:45 -20.53650 127.09345 30095 ft 329 kts 294°
2026-05-06 19:45 -20.51455 127.05061 30093 ft 329 kts 294°
2026-05-06 19:46 -20.49271 127.00797 30089 ft 329 kts 294°
2026-05-06 19:46 -20.47067 126.96501 30093 ft 329 kts 294°
2026-05-06 19:47 -20.44868 126.92209 30061 ft 329 kts 294°
2026-05-06 19:47 -20.42674 126.87925 30078 ft 329 kts 294°
2026-05-06 19:48 -20.40481 126.83663 30087 ft 329 kts 294°
2026-05-06 19:48 -20.38279 126.79384 30088 ft 329 kts 294°
2026-05-06 19:49 -20.36067 126.75094 30087 ft 329 kts 294°
2026-05-06 19:49 -20.33874 126.70834 30090 ft 330 kts 294°
2026-05-06 19:50 -20.31662 126.66544 30088 ft 330 kts 294°
2026-05-06 19:50 -20.29448 126.62259 30081 ft 330 kts 294°
2026-05-06 19:51 -20.27231 126.57971 30084 ft 330 kts 294°
2026-05-06 19:51 -20.25029 126.53707 30091 ft 330 kts 294°
2026-05-06 19:52 -20.22805 126.49415 30091 ft 330 kts 294°
2026-05-06 19:52 -20.20593 126.45137 30083 ft 330 kts 294°
2026-05-06 19:53 -20.18385 126.40877 30083 ft 330 kts 294°
2026-05-06 19:53 -20.16164 126.36595 30078 ft 331 kts 294°
2026-05-06 19:54 -20.13935 126.32305 30081 ft 331 kts 294°
2026-05-06 19:54 -20.11709 126.28020 30080 ft 331 kts 294°
2026-05-06 19:55 -20.09483 126.23732 30083 ft 331 kts 294°
2026-05-06 19:55 -20.07253 126.19442 30061 ft 331 kts 294°
2026-05-06 19:56 -20.05021 126.15158 30070 ft 331 kts 294°
2026-05-06 19:56 -20.02806 126.10909 30070 ft 331 kts 294°
2026-05-06 19:57 -20.00572 126.06627 30067 ft 331 kts 294°
2026-05-06 19:57 -19.98337 126.02346 30065 ft 331 kts 294°
2026-05-06 19:58 -19.96103 125.98072 30067 ft 331 kts 294°
2026-05-06 19:58 -19.93867 125.93796 30062 ft 331 kts 294°
2026-05-06 19:59 -19.91629 125.89520 30057 ft 331 kts 294°
2026-05-06 19:59 -19.89389 125.85243 30030 ft 331 kts 294°
2026-05-06 20:00 -19.87168 125.81003 30049 ft 330 kts 294°
2026-05-06 20:00 -19.84915 125.76708 30057 ft 331 kts 294°
2026-05-06 20:01 -19.82690 125.72462 30056 ft 331 kts 294°
2026-05-06 20:01 -19.80441 125.68182 30054 ft 331 kts 294°
2026-05-06 20:02 -19.78202 125.63916 30047 ft 330 kts 294°
2026-05-06 20:02 -19.75967 125.59677 30047 ft 332 kts 294°
2026-05-06 20:03 -19.73700 125.55370 30052 ft 336 kts 294°
2026-05-06 20:03 -19.71407 125.51020 30046 ft 339 kts 294°
2026-05-06 20:04 -19.69098 125.46628 30040 ft 342 kts 294°
2026-05-06 20:04 -19.66781 125.42233 30040 ft 344 kts 294°
2026-05-06 20:05 -19.64437 125.37781 30040 ft 347 kts 294°
2026-05-06 20:05 -19.62087 125.33306 30038 ft 347 kts 294°
2026-05-06 20:06 -19.59739 125.28834 30035 ft 346 kts 294°
2026-05-06 20:06 -19.57402 125.24384 30040 ft 348 kts 294°
2026-05-06 20:07 -19.55042 125.19885 30032 ft 350 kts 294°
2026-05-06 20:07 -19.52670 125.15373 30037 ft 350 kts 294°
2026-05-06 20:08 -19.50300 125.10908 30017 ft 349 kts 294°
2026-05-06 20:08 -19.47927 125.06435 30029 ft 348 kts 294°
2026-05-06 20:09 -19.45538 125.01943 30029 ft 350 kts 294°
2026-05-06 20:09 -19.43137 124.97428 30037 ft 352 kts 294°
2026-05-06 20:10 -19.40739 124.92918 30029 ft 354 kts 294°
2026-05-06 20:10 -19.38319 124.88374 30023 ft 353 kts 294°
2026-05-06 20:11 -19.35910 124.83831 30022 ft 352 kts 294°
2026-05-06 20:11 -19.33527 124.79338 30027 ft 352 kts 294°
2026-05-06 20:12 -19.31110 124.74797 29997 ft 354 kts 295°
2026-05-06 20:12 -19.28694 124.70272 30022 ft 355 kts 294°
2026-05-06 20:13 -19.26266 124.65697 30025 ft 357 kts 294°
2026-05-06 20:13 -19.23824 124.61119 30019 ft 358 kts 294°
2026-05-06 20:14 -19.21367 124.56511 30017 ft 359 kts 294°
2026-05-06 20:14 -19.18906 124.51901 30023 ft 360 kts 294°
2026-05-06 20:15 -19.16438 124.47282 30024 ft 361 kts 294°
2026-05-06 20:15 -19.13986 124.42674 30019 ft 362 kts 294°
2026-05-06 20:16 -19.11496 124.38024 29981 ft 363 kts 294°
2026-05-06 20:16 -19.09016 124.33408 30009 ft 363 kts 294°
2026-05-06 20:17 -19.06523 124.28751 30011 ft 364 kts 295°
2026-05-06 20:17 -19.04022 124.24089 30010 ft 364 kts 294°
2026-05-06 20:18 -19.01537 124.19440 30017 ft 365 kts 294°
2026-05-06 20:18 -18.99028 124.14770 30013 ft 366 kts 295°
2026-05-06 20:19 -18.96938 124.10882 30009 ft 366 kts 295°
2026-05-06 20:19 -18.94005 124.05428 30009 ft 367 kts 295°
2026-05-06 20:20 -18.91904 124.01527 30013 ft 367 kts 294°
2026-05-06 20:20 -18.89531 123.97121 29995 ft 367 kts 295°
2026-05-06 20:21 -18.86972 123.92360 30003 ft 367 kts 294°
2026-05-06 20:21 -18.84442 123.87671 29841 ft 364 kts 294°
2026-05-06 20:22 -18.83207 123.85374 29384 ft 364 kts 295°
2026-05-06 20:22 -18.81953 123.83048 28927 ft 364 kts 295°
2026-05-06 20:22 -18.80713 123.80759 28491 ft 364 kts 295°
2026-05-06 20:22 -18.79450 123.78438 28061 ft 364 kts 295°
2026-05-06 20:23 -18.78194 123.76118 27635 ft 363 kts 295°
2026-05-06 20:23 -18.76944 123.73801 27208 ft 363 kts 295°
2026-05-06 20:23 -18.75694 123.71482 26800 ft 363 kts 295°
2026-05-06 20:23 -18.74448 123.69167 26400 ft 363 kts 295°
2026-05-06 20:24 -18.73218 123.66880 26008 ft 363 kts 295°
2026-05-06 20:24 -18.71973 123.64564 25612 ft 362 kts 295°
2026-05-06 20:24 -18.70728 123.62245 25193 ft 362 kts 295°
2026-05-06 20:24 -18.69490 123.59928 24815 ft 363 kts 295°
2026-05-06 20:25 -18.68252 123.57602 24433 ft 363 kts 295°
2026-05-06 20:25 -18.67006 123.55279 24056 ft 364 kts 295°
2026-05-06 20:25 -18.65743 123.52960 23683 ft 364 kts 295°
2026-05-06 20:25 -18.64493 123.50671 23267 ft 365 kts 295°
2026-05-06 20:26 -18.63229 123.48346 22817 ft 365 kts 296°
2026-05-06 20:26 -18.61958 123.46023 22393 ft 366 kts 296°
2026-05-06 20:26 -18.60687 123.43694 21970 ft 366 kts 296°
2026-05-06 20:26 -18.59424 123.41363 21542 ft 367 kts 296°
2026-05-06 20:27 -18.58160 123.39020 21118 ft 367 kts 296°
2026-05-06 20:27 -18.56905 123.36677 20710 ft 367 kts 296°
2026-05-06 20:27 -18.55668 123.34358 20309 ft 366 kts 296°
2026-05-06 20:27 -18.54410 123.32033 19905 ft 364 kts 296°
2026-05-06 20:28 -18.53145 123.29717 19505 ft 363 kts 296°
2026-05-06 20:28 -18.51887 123.27416 19117 ft 361 kts 296°
2026-05-06 20:28 -18.50696 123.25234 18746 ft 360 kts 297°
2026-05-06 20:28 -18.49452 123.22944 18365 ft 359 kts 297°
2026-05-06 20:29 -18.48539 123.21254 18037 ft 359 kts 297°
2026-05-06 20:29 -18.47328 123.19005 17605 ft 358 kts 297°
2026-05-06 20:29 -18.46096 123.16722 17172 ft 357 kts 297°
2026-05-06 20:29 -18.44856 123.14455 16748 ft 356 kts 297°
2026-05-06 20:30 -18.43618 123.12197 16328 ft 355 kts 297°
2026-05-06 20:30 -18.41171 123.07714 15510 ft 354 kts 297°
2026-05-06 20:30 -18.39954 123.05466 15093 ft 353 kts 297°
2026-05-06 20:31 -18.38739 123.03218 14696 ft 353 kts 298°
2026-05-06 20:31 -18.37512 123.00978 14308 ft 352 kts 298°
2026-05-06 20:31 -18.36283 122.98744 13920 ft 352 kts 298°
2026-05-06 20:31 -18.35057 122.96506 13497 ft 352 kts 298°
2026-05-06 20:32 -18.33839 122.94275 13061 ft 351 kts 298°
2026-05-06 20:32 -18.32623 122.92038 12627 ft 351 kts 298°
2026-05-06 20:32 -18.31414 122.89805 12202 ft 350 kts 298°
2026-05-06 20:32 -18.30200 122.87583 11794 ft 350 kts 299°
2026-05-06 20:33 -18.28973 122.85362 11359 ft 350 kts 299°
2026-05-06 20:33 -18.27750 122.83152 10966 ft 349 kts 300°
2026-05-06 20:33 -18.26574 122.81016 10602 ft 334 kts 299°
2026-05-06 20:33 -18.25428 122.78942 10315 ft 321 kts 300°
2026-05-06 20:34 -18.24354 122.76986 10022 ft 293 kts 300°
2026-05-06 20:34 -18.23379 122.75220 9721 ft 267 kts 300°
2026-05-06 20:34 -18.22476 122.73580 9438 ft 251 kts 300°
2026-05-06 20:34 -18.21625 122.72021 9159 ft 241 kts 300°
2026-05-06 20:35 -18.20802 122.70509 8891 ft 235 kts 299°
2026-05-06 20:35 -18.20005 122.69022 8634 ft 231 kts 299°
2026-05-06 20:35 -18.19216 122.67556 8382 ft 228 kts 300°
2026-05-06 20:35 -18.18404 122.66084 8163 ft 238 kts 301°
2026-05-06 20:36 -18.17557 122.64574 7984 ft 246 kts 301°
2026-05-06 20:36 -18.16674 122.62995 7808 ft 252 kts 301°
2026-05-06 20:36 -18.15779 122.61387 7636 ft 256 kts 300°
2026-05-06 20:36 -18.14898 122.59801 7466 ft 259 kts 301°
2026-05-06 20:37 -18.13987 122.58155 7282 ft 261 kts 300°
2026-05-06 20:37 -18.13084 122.56519 7105 ft 263 kts 300°
2026-05-06 20:37 -18.12169 122.54853 6920 ft 264 kts 300°
2026-05-06 20:37 -18.11250 122.53177 6743 ft 265 kts 301°
2026-05-06 20:38 -18.10315 122.51502 6560 ft 265 kts 301°
2026-05-06 20:38 -18.09385 122.49847 6380 ft 257 kts 301°
2026-05-06 20:38 -18.08487 122.48249 6179 ft 251 kts 301°
2026-05-06 20:38 -18.07616 122.46701 5986 ft 247 kts 301°
2026-05-06 20:39 -18.06746 122.45152 5787 ft 245 kts 301°
2026-05-06 20:39 -18.05884 122.43612 5570 ft 244 kts 301°
2026-05-06 20:39 -18.05021 122.42074 5349 ft 244 kts 301°
2026-05-06 20:39 -18.04156 122.40533 5135 ft 244 kts 301°
2026-05-06 20:40 -18.03291 122.38987 4928 ft 245 kts 301°
2026-05-06 20:40 -18.02439 122.37459 4715 ft 245 kts 301°
2026-05-06 20:40 -18.01576 122.35909 4481 ft 246 kts 301°
2026-05-06 20:40 -18.00713 122.34356 4270 ft 246 kts 302°
2026-05-06 20:41 -17.99862 122.32799 4050 ft 242 kts 301°
2026-05-06 20:41 -17.99032 122.31294 3676 ft 235 kts 303°
2026-05-06 20:41 -17.98207 122.29820 3287 ft 233 kts 302°
2026-05-06 20:41 -17.97396 122.28374 2927 ft 232 kts 302°
2026-05-06 20:42 -17.96581 122.26911 2594 ft 231 kts 302°
2026-05-06 20:42 -17.95956 122.25796 2373 ft 231 kts 302°
2026-05-06 20:42 -17.95299 122.24626 2175 ft 229 kts 302°
2026-05-06 20:42 -17.94700 122.23575 2122 ft 224 kts 305°
2026-05-06 20:43 -17.93773 122.22210 2051 ft 239 kts 309°
2026-05-06 20:43 -17.92746 122.20854 2136 ft 241 kts 311°
2026-05-06 20:43 -17.91691 122.19513 2151 ft 236 kts 312°
2026-05-06 20:43 -17.90655 122.18194 2160 ft 232 kts 312°
2026-05-06 20:44 -17.89637 122.16889 2128 ft 229 kts 311°
2026-05-06 20:44 -17.88650 122.15584 2036 ft 228 kts 308°
2026-05-06 20:44 -17.88162 122.14103 2084 ft 202 kts 269°
2026-05-06 20:44 -17.88518 122.12787 1920 ft 183 kts 238°
2026-05-06 20:45 -17.89393 122.11846 1549 ft 179 kts 209°
2026-05-06 20:45 -17.90553 122.11457 1098 ft 175 kts 179°
2026-05-06 20:45 -17.91714 122.11671 821 ft 162 kts 152°
2026-05-06 20:45 -17.92602 122.12207 818 ft 134 kts 142°
2026-05-06 20:46 -17.93278 122.12861 588 ft 154 kts 127°
2026-05-06 20:46 -17.93898 122.14007 1097 ft 191 kts 112°
2026-05-06 20:46 -17.94186 122.15398 1890 ft 207 kts 93°
2026-05-06 20:46 -17.94116 122.16917 1958 ft 196 kts 78°
2026-05-06 20:47 -17.93805 122.18171 1562 ft 164 kts 60°
2026-05-06 20:47 -17.93189 122.19014 1083 ft 126 kts 53°
2026-05-06 20:47 -17.93117 122.19776 627 ft 116 kts 134°
2026-05-06 20:47 -17.93788 122.20346 518 ft 118 kts 142°
2026-05-06 20:48 -17.94289 122.20914 263 ft 118 kts 122°
2026-05-06 20:48 -17.94589 122.21654 106 ft 124 kts 106°
2026-05-06 20:48 -17.94789 122.22417 54 ft 87 kts 108°
2026-05-06 20:48 -17.94914 122.22881 45 ft 66 kts 103°
2026-05-06 20:49 -17.95005 122.23230 36 ft 39 kts 105°
2026-05-06 20:49 -17.95075 122.23386 32 ft 16 kts 172°
2026-05-06 20:49 -17.95139 122.23374 34 ft 0 kts 192°
2026-05-06 20:50 -17.95140 122.23374 34 ft 2 kts 195°
2026-05-06 20:50 -17.95179 122.23334 34 ft 5 kts 256°
2026-05-06 20:50 -17.95213 122.23303 34 ft 7 kts 182°
2026-05-06 20:50 -17.95227 122.23322 34 ft 6 kts 73°
2026-05-06 20:51 -17.95217 122.23345 34 ft 0 kts 65°
2026-05-06 20:52 -17.95216 122.23345 34 ft 0 kts 65°